NIMBUS 2 DEB, 32475

Orbit data source: Space-Track

NIMBUS 2 DEB, 32475 is space debris in SSO originally from a launch on Sun, 15 May 1966 UTC launched from the Air Force Western Test Range (AFWTR). Debris objects in space refer to the collection of defunct objects orbiting the Earth. Examples of debris include non-operational satellites, rocket bodies, and fragments generated from explosions, collisions, or faulty payload assembly.

Loading next visibility...
Identifier
32475, 1966-040AS
Orbit
SSO
Country
Flag of USUS
Related business
Manufacturer
Unknown
Mission
Spacecraft
Bus & Motor
Unknown
Mass
Unknown
Launch date (UTC)
1966-05-15 (60 years ago)
Launch vehicle
Unknown
Launch site
Air Force Western Test Range (AFWTR)
Object type
Payload
Rocket body
Debris
Shape & HBR
Unknown shape, 0.1 m
Radar Cross Section
Small (<0.1 m²)

Expand to show TLE details & history
Last TLE update: 4 days ago

TLE from 4 days ago
0 NIMBUS 2 DEB
1 32475U 66040AS  26170.36918706  .00002208  00000-0  30243-2 0  9999
2 32475 100.5286 199.6438 0063360  92.9327 284.4048 13.59213120928720
Epoch: 2026-06-19T08:51Z
TLE epoch observation values (Epoch: 2026-06-19T08:51:37.761Z)
Latitude
16.32966°
Longitude
156.03202°
Altitude
1,029.264 km
Speed
7.344 km/s
True Right ascension
13h 06m 09s
True Declination
16° 14' 26"
Sunlit
Object was in daylight at epoch
Visualization orbit readout
Latitude
Unknown
Longitude
Unknown
Altitude
Unknown
Speed
Unknown
Apparent Right ascension
Unknown
Apparent Declination
Unknown
Sunlit
N/A
Visualization observer readout
Local Sidereal Time
08:39:17
Azimuth
Unknown
Elevation
Unknown
Doppler factor
Unknown
Orbital elements
Apogee altitude
1,082.862 km
Perigee altitude
988.911 km
Semi-major axis
7,414.024 km
Eccentricity
0.00634
Inclination
100.5286°
RAAN
199.6438°
Arg. of periapsis
92.9327°
True anomaly
283.7002°
Mean anomaly
284.4048°
Eccentric anomaly
284.05264°
Mean motion
3.39987 °/min
Orbital period
105.89 mins
BSTAR
0.0030243
Loading maneuver chart data...
Computing Atmospheric mass density...
Loading historical data...
Loading historical data...
Loading historical data...
Loading historical data...
Loading historical data...
Loading historical data...
Loading historical data...

Documentation

Showing up to 5 results
|